Location: Newark
(20.1720°N, 90.0102°W)
Time: 22:51:41
(UTC+00:00)

ISS - Visible Passes

Search period start: 19 July 2019 00:00
Search period end: 29 July 2019 00:00
Orbit: 409 x 418 km, 51.6° (Epoch: 20 July)

Date Brightness Start Highest point End Pass type
(mag) Time Alt. Az. Time Alt. Az. Time Alt. Az.
19 Jul -1.0 01:33:15 10° WSW 01:35:59 23° NW 01:38:42 10° N visible
19 Jul -1.3 09:46:49 10° N 09:49:32 23° NE 09:52:14 10° ESE visible
20 Jul -0.3 09:00:00 12° NE 09:00:08 12° NE 09:01:26 10° ENE visible
20 Jul -3.0 10:33:52 10° WNW 10:36:48 30° SW 10:39:44 10° S visible
